Location: Newark
(48.1500°N, 2.9667°W)
Time: 22:11:25
(UTC+00:00)

A-11 Canister half - Pass Details

Date: 27 January 2020
Orbit: 1524 x 1684 km, 47.3° (Epoch: 19 February)

Event Time Altitude Azimuth Distance (km) Brightness Sun altitude
Rises 00:07:52 0° 290° (WNW) 4,767 11.8 -60.3°
Enters shadow 00:08:49 - 288° (WNW) 4,487 11.6 -60.3°
Reaches altitude 10° 00:11:16 10° 282° (WNW) 3,802 - -60.4°
Maximum altitude 00:19:34 34° 223° (SW) 2,451 - -60.5°
Drops below altitude 10° 00:28:06 10° 163° (SSE) 3,896 - -60.5°
Sets 00:31:39 0° 155° (SSE) 4,898 - -60.5°
